This demonstration page uses our WeatherBlox Daily Observations layout. Learn more.

39.92423, -83.80882

Hourly Observations for May 28, 2019

Temp ( °F °C ) Dew Point ( °F °C ) Humidity (%) Winds ( mph kmh ) Pressure ( in mb ) Visibility ( mi km ) Precip ( " mm )
12:10 am 00:10 Cloudy with Heavy Thunderstorms 66 19 66 19 100 100 WSW 23 37 29.86 1011 2.5 4.02335 0.13 3.302
12:23 am 00:23 Cloudy with Thunderstorms 64 18 64 18 100 100 SSE 9 15 29.83 1010 5 8.0467 0.26 6.604
12:32 am 00:32 Cloudy with Nearby Thunderstorms 64 18 64 18 100 100 SE 8 13 29.82 1010 10 16.0934 0.34 8.636
12:36 am 00:36 Cloudy with Nearby Thunderstorms 64 18 64 18 100 100 SSE 7 11 29.81 1009 10 16.0934 0.37 9.398
12:56 am 00:56 Mostly Cloudy 65 18.3 64 17.8 97 97 Calm 29.82 1010 10 16.0934 0.52 13.208
1:56 am 01:56 Mostly Cloudy 67 19.4 67 19.4 100 100 S 3 6 29.8 1009 10 16.0934 0.3 7.62
2:56 am 02:56 Partly Cloudy 69 20.6 69 20.6 100 100 SSW 3 6 29.78 1008 10 16.0934 0.18 4.572
3:56 am 03:56 Clear 71 21.7 68 20 90 90 SSW 14 22 29.75 1008 10 16.0934 0.01 0.254
4:56 am 04:56 Clear 71 21.7 68 20 90 90 SW 10 17 29.76 1008 10 16.0934 0 0
5:56 am 05:56 Mostly Cloudy 71 21.7 68 20 90 90 SW 14 22 29.78 1008 10 16.0934 0 0
6:56 am 06:56 Sunny 72 22.2 67 19.4 84 84 SW 14 22 29.78 1009 10 16.0934 0 0
7:56 am 07:56 Sunny 74 23.3 68 20 82 82 SW 14 22 29.79 1009 10 16.0934 0 0
8:56 am 08:56 Sunny 76 24.4 69 20.6 79 79 SW 15 24 29.79 1009 10 16.0934 0 0
9:56 am 09:56 Mostly Cloudy 77 25 70 21.1 79 79 SW 15 24 29.78 1009 10 16.0934 0 0
10:56 am 10:56 Mostly Sunny 79 26.1 71 21.7 77 77 WSW 17 28 29.77 1008 10 16.0934 0 0
11:56 am 11:56 Sunny 81 27.2 71 21.7 72 72 WSW 18 30 29.78 1009 10 16.0934 0 0
12:56 pm 12:56 Partly Cloudy 82 27.8 71 21.7 69 69 SW 17 28 29.78 1008 10 16.0934 0 0
1:56 pm 13:56 Mostly Cloudy 83 28.3 71 21.7 67 67 WSW 16 26 29.78 1008 10 16.0934 0 0
2:56 pm 14:56 Mostly Cloudy 84 28.9 71 21.7 65 65 SW 21 33 29.76 1008 10 16.0934 0 0
4:56 pm 16:56 Partly Cloudy 85 29.4 69 20.6 59 59 WSW 20 31 29.73 1007 10 16.0934 0 0
5:56 pm 17:56 Mostly Sunny 84 28.9 68 20 59 59 WSW 18 30 29.75 1007 10 16.0934 0 0
6:56 pm 18:56 Sunny 82 27.8 67 19.4 60 60 WSW 16 26 29.75 1008 10 16.0934 0 0
7:56 pm 19:56 Sunny 80 26.7 66 18.9 62 62 WSW 15 24 29.76 1008 10 16.0934 0 0
8:56 pm 20:56 Clear 76 24.4 67 19.4 74 74 SW 7 11 29.74 1007 10 16.0934 0 0
9:56 pm 21:56 Clear 76 24.4 66 18.9 72 72 SSW 8 13 29.73 1007 10 16.0934 0 0
10:56 pm 22:56 Clear 72 22.2 66 18.9 82 82 SW 6 9 29.75 1008 10 16.0934 0 0
11:56 pm 23:56 Clear 71 21.7 66 18.9 84 84 SW 5 7 29.77 1008 10 16.0934 0 0

Powered by AerisWeather